Hourly Data Report for October 05, 2017

All times are specified in Local Standard Time (LST). Add 1 hour to adjust for Daylight Saving Time where and when it is observed.

PILOT MOUND (AUT)
MANITOBA

49°11'27.700" N
98°54'17.500" W
470.30 m
5022125
71148
WPO

Download Data

Hourly Data (October 2017)
Hourly Data Report for October 5, 2017
Temp Definition
°C
Dew Point Temp Definition
°C
Rel Hum Definition
%
Wind Dir Definition
10's deg

Wind Spd Definition
km/h
Visibility Definition
km
Stn Press Definition
kPa
Hmdx Definition


Wind Chill Definition


Weather Definition


TIME
00:00 3.9 0.2 77 27 6   96.38     LegendNANA
01:00 0.6 -1.2 88 26 5   96.38     LegendNANA
02:00 0.3 -1.5 88 28 5   96.39     LegendNANA
03:00 0.6 -0.9 90 29 6   96.42     LegendNANA
04:00 -0.3 -1.3 93 32 8   96.41   -3 LegendNANA
05:00 0.5 -1.9 84 30 9   96.42     LegendNANA
06:00 -1.1 -2.7 89 32 8   96.43   -4 LegendNANA
07:00 -1.9 -2.7 95 25 7   96.47   -5 LegendNANA
08:00 1.4 -0.6 87 32 8   96.49     LegendNANA
09:00 5.2 2.1 81 35 12   96.52     LegendNANA
10:00 7.9 3.7 74 1 8   96.53     LegendNANA
11:00 10.0 3.3 63 6 4   96.50     LegendNANA
12:00 10.7 2.5 57 32 7   96.50     LegendNANA
13:00 11.5 2.0 52 30 11   96.44     LegendNANA
14:00 12.3 0.6 45 28 10   96.41     LegendNANA
15:00 12.7 0.8 44 25 6   96.36     LegendNANA
16:00 12.6 0.3 43 31 13   96.33     LegendNANA
17:00 12.6 0.5 43 30 7   96.31     LegendNANA
18:00 10.5 1.3 53 31 3   96.27     LegendNANA
19:00 8.1 1.5 63 30 1   96.27     LegendNANA
20:00 5.3 1.2 75 17 6   96.27     LegendNANA
21:00 4.4 0.5 76 18 5   96.25     LegendNANA
22:00 2.2 -1.0 79 19 6   96.24     LegendNANA
23:00 1.0 -1.2 85 18 8   96.19     LegendNANA

Notes on Data Quality.

Legend

  • E = Estimated
  • M = Missing
  • NA = Not Available
  • ‡ = Partner data that is not subject to review by the National Climate Archives
Date modified: